TITAN 3C TRANSTAGE R/B, 5589

Orbit data source: Space-Track

TITAN 3C TRANSTAGE R/B, 5589 is space debris in GEO originally from a launch on Wed, 03 Nov 1971 UTC launched from the Air Force Eastern Test Range (AFETR). Debris objects in space refer to the collection of defunct objects orbiting the Earth. Examples of debris include non-operational satellites, rocket bodies, and fragments generated from explosions, collisions, or faulty payload assembly.

Not visible in the next 10 days
Identifier
5589, 1971-095C
Orbit
GEO
Country
Flag of USUS
Related business
Manufacturer
Martin Marietta
Mission
Spacecraft
Bus & Motor
TRANSTAGE, Unknown motor
Mass
~1,950 kg wet, ~1,950 kg dry
Launch date (UTC)
1971-11-03 (54 years ago)
Launch vehicle
Unknown
Launch site
Air Force Eastern Test Range (AFETR)
Object type
Payload
Rocket body
Debris
Shape & HBR
Unknown
Radar Cross Section
Large (>1 m²)

Expand to show TLE details & history
Last TLE update: 19 hours ago

TLE from 19 hours ago
0 TITAN 3C TRANSTAGE R/B
1 05589U 71095C   25305.63559686 -.00000124  00000-0  00000-0 0  9990
2 05589   3.8875 276.1686 0166299 181.2126 288.1293  0.97188247117211
Epoch: 2025-11-01T15:15Z
TLE epoch observation values (Epoch: 2025-11-01T15:15:15.568Z)
Latitude
3.7217°
Longitude
113.71521°
Altitude
36,459.848 km
Speed
3.058 km/s
True Right ascension
01h 34m 46s
True Declination
3° 43' 05"
Sunlit
Object was in daylight at epoch
Visualization orbit readout
Latitude
Unknown
Longitude
Unknown
Altitude
Unknown
Speed
Unknown
Apparent Right ascension
Unknown
Apparent Declination
Unknown
Sunlit
N/A
Visualization observer readout
Local Sidereal Time
05:47:48
Azimuth
Unknown
Elevation
Unknown
Doppler factor
Unknown
Orbital elements
Apogee altitude
37,390.807 km
Perigee altitude
35,958.874 km
Semi-major axis
43,052.978 km
Eccentricity
0.01663
Inclination
3.8875°
RAAN
276.1686°
Arg. of periapsis
181.2126°
True anomaly
286.30678°
Mean anomaly
288.1293°
Eccentric anomaly
287.21918°
Mean motion
0.24296 °/min
Orbital period
1,481.71 mins
BSTAR
0
Loading maneuver chart data...
Computing Atmospheric mass density...
Loading historical data...
Loading historical data...
Loading historical data...
Loading historical data...
Loading historical data...
Loading historical data...
Loading historical data...
Other satellites on launch #95 in the year 1971 (1971-11-03 UTC)

Documentation

Showing up to 5 results
|